Regional Weather Roundup
Issued by NWS State College, PA

Home | Current Version | Previous Version | Text Only | Print | Product List | Glossary Off
Versions: 1 2 3 4 5 6 7 8 9 10 11 12 13 14 15 16 17 18 19 20 21 22 23 24 25 26 27 28 29 30 31 32 33 34 35 36 37 38 39 40 41 42 43 44 45 46 47 48 49 50

000
ASUS41 KCTP 110910
RWRCTP

REGIONAL WEATHER ROUNDUP
NATIONAL WEATHER SERVICE STATE COLLEGE PA
500 AM EDT FRI JUL 11 2014

Note: "fair" indicates few or no clouds below 12,000 feet with no
significant weather and/or obstructions to visibility.

* = STATION THAT DOES NOT REPORT PRECIPITATION /E.G. RAIN...SNOW...ETC/
    THUNDER OR FOG.

PAZ002>004-007>009-013>016-020>023-029>032-111000-
WESTERN PENNSYLVANIA

CITY           SKY/WX    TMP DP  RH WIND       PRES   REMARKS
ERIE           PTCLDY    58  53  84 CALM      30.19S
MEADVILLE      PTCLDY    57  53  86 NE3       30.20S
FRANKLIN*      PTCLDY    55  54  94 NE5       30.21S
NEW CASTLE     NOT AVBL
BEAVER COUNTY  NOT AVBL
BUTLER*        PTCLDY    59  55  88 NE5       30.20R
PITTSBURGH INT PTCLDY    62  57  83 CALM      30.17S
PITTSBURGH     CLEAR     63  57  81 CALM      30.17R
INDIANA*       MOCLDY    61  59  94 E5        30.23S
LATROBE        CLEAR     59  59 100 CALM      30.19S FOG
WASHINGTON CO* MOCLDY    55  54  94 CALM      30.18S VSB 1
$$

PAZ004>006-010>012-017>019-024>028-033>037-041-042-045-046-049>053-111000-
CENTRAL PENNSYLVANIA

CITY           SKY/WX    TMP DP  RH WIND       PRES   REMARKS
BRADFORD       MOCLDY    53  50  89 CALM      30.24R
DUBOIS         CLEAR     59  56  89 E5        30.21R
CLEARFIELD     CLEAR     56  55  97 CALM      30.22R
JOHNSTOWN      CLEAR     60  57  89 CALM      30.22R
ALTOONA        FOG       61  60  97 CALM      30.21R VSB 1/4
STATE COLLEGE  FOG       59  58  99 CALM      30.20S VSB 3/4
WILLIAMSPORT   CLEAR     61  57  87 CALM      30.18S
SELINSGROVE    CLEAR     61  59  93 CALM      30.19R FOG
FT INDIANTOWN  CLEAR     64  64 100 NE3       30.16S
CAPITAL CITY   MOCLDY    64  61  90 W3        30.16S
HARRISBURG     MOCLDY    67  64  90 N6        30.15S
YORK           CLOUDY    63  62  97 CALM      30.16S FOG
$$

PAZ038>040-043-044-047-048-054-055-060>062-067>071-111000-
EASTERN PENNSYLVANIA

CITY           SKY/WX    TMP DP  RH WIND       PRES   REMARKS
SCRANTON       CLOUDY    62  55  77 E3        30.20S
MOUNT POCONO   CLEAR     60  53  77 NE6       30.21F
ALLENTOWN      CLEAR     63  62  97 CALM      30.17R
QUAKERTOWN*    SUNNY     66  64  94 CALM      30.17R
READING        CLEAR     67  64  90 NW5       30.15R
LANCASTER      CLEAR     64  63  96 CALM      30.16R FOG
COATESVILLE    SUNNY     64  64 100 CALM      30.17R
POTTSTOWN      CLEAR     65  63  93 CALM      30.17R
BLUE BELL      CLEAR     66  64  94 CALM      30.15R
DOYLESTOWN     PTCLDY    64  64 100 NE3       30.15R
WILLOW GROVE   NOT AVBL
NORTH PHILA    PTCLDY    70  62  76 N5        30.15R
PHILADELPHIA   PTCLDY    72  63  73 N5        30.14R
$$



USA.gov is the U.S. government's official web portal to all federal, state and local government web resources and services.